Regional Weather Roundup
Issued by NWS Northern Indiana

Home | Current Version | Previous Version | Text Only | Print | Product List | Glossary Off
Versions: 1 2 3 4 5 6 7 8 9 10 11 12 13 14 15 16 17 18 19 20 21 22 23 24 25 26 27 28 29 30 31 32 33 34 35 36 37 38 39 40 41 42 43 44 45 46 47 48 49 50

000
ASUS43 KIWX 161510
RWRIWX

KIWX WEATHER ROUNDUP
NATIONAL WEATHER SERVICE NORTHERN INDIANA
1100 AM EDT WED APR 16 2014

NOTE: "FAIR" INDICATES FEW OR NO CLOUDS BELOW 12,000 FEET WITH NO
SIGNIFICANT WEATHER AND/OR OBSTRUCTIONS TO VISIBILITY.

* THESE STATIONS ARE NOT UNDER NWS QUALITY CONTROL. THEY ALSO MAY NOT
  REPORT WEATHER SUCH AS PRECIPITATION OR FOG.

INZ001>027-161600-
NORTHERN INDIANA

CITY           SKY/WX    TMP DP  RH WIND       PRES   REMARKS
GARY*          MOSUNNY   39  23  52 S14       30.34S
VALPARAISO     SUNNY     39  21  48 S13       30.35S
MICHIGAN CITY* SUNNY     41  21  45 SE12G17   30.35S
LAPORTE*       SUNNY     38  20  48 S13       30.35F
SOUTH BEND     SUNNY     40  18  41 S14G20    30.36F
ELKHART*       SUNNY     37  16  41 S12G18    30.38F
GOSHEN         SUNNY     39  17  41 SE13      30.38F
MONTICELLO*    SUNNY     38  22  51 S13       30.36S
LOGANSPORT*    SUNNY     37  21  52 S13       30.38S
ROCHESTER*     SUNNY     41  21  45 SE13      30.38S
WARSAW*        SUNNY     37  19  48 S8        30.39S
ANGOLA*        SUNNY     34  16  47 S10       30.40S WCI  26
FORT WAYNE     SUNNY     38  17  42 SE13      30.42R
HUNTINGTON*    FAIR      36  18  47 S10       30.40S
PERU/GRISSOM   SUNNY     39  20  47 S13       30.38R
MARION*        SUNNY     37  17  45 S12       30.40R

$$
INZ028>050-161600-
CENTRAL INDIANA

CITY           SKY/WX    TMP DP  RH WIND       PRES   REMARKS
LAFAYETTE      SUNNY     39  21  48 S13G20    30.36S
KOKOMO*        SUNNY     37  21  52 SE14      30.38S
MUNCIE*        SUNNY     37  17  44 SE10      30.39S
INDIANAPOLIS   MOSUNNY   37  20  50 SE13      30.37S

$$
MIZ043>046-050>051-056>058-064>065-071>073-077>080-161600-
SOUTHWEST LOWER MICHIGAN

CITY           SKY/WX    TMP DP  RH WIND       PRES   REMARKS
BATTLE CREEK   PTSUNNY   36  16  44 S14       30.39S
BENTON HARBOR  SUNNY     38  20  48 SE10      30.36F
COLDWATER*     SUNNY     36  14  41 SE8       30.40R
HILLSDALE*     SUNNY     35  15  44 S10       30.40S WCI  27
HOLLAND        SUNNY     38  19  46 S10       30.38S
GRAND RAPIDS   MOSUNNY   38  18  44 S10       30.40R
KALAMAZOO      SUNNY     37  15  40 S15       30.39R
STURGIS*       SUNNY     36  16  44 S9        30.39R
THREE RIVERS*  FAIR      38  15  38 S14       30.39F

$$
OHZ001>008-015>018-024>025-161600-
NORTHWEST OHIO

CITY           SKY/WX    TMP DP  RH WIND       PRES   REMARKS
WAUSEON*       FAIR      36  14  41 SE12      30.44S
DEFIANCE       SUNNY     36  13  38 SE7       30.44R
FINDLAY        SUNNY     34  15  46 SE12      30.43S WCI  25
TOLEDO EXPRESS SUNNY     35  12  38 E6        30.45R WCI  30
TOLEDO METCALF SUNNY     36  13  38 SE7       30.46R
LIMA           SUNNY     36  14  40 SE9       30.42S

$$
&&



USA.gov is the U.S. government's official web portal to all federal, state and local government web resources and services.